• In Austria
  • List of Countries
  • For 7 days
  • Water Temperature
  • Satellite Maps
  • Weather Map
  • News
  • Weather Widgets
  • user-avatar
    Login

    Hourly Weather Batina

    Today, 17 February, Saturday

    Time Temperature Precipitation Wind Pressure Humidity
    00:00 +8°C° 0 mm 2 mps 674 mmHg 61%
    01:00 +8°C° 0.1 mm 2 mps 673 mmHg 63%
    02:00 +8°C° 0.1 mm 2 mps 673 mmHg 65%
    03:00 +8°C° 0.1 mm 2 mps 673 mmHg 67%
    04:00 +7°C° 0.2 mm 2 mps 673 mmHg 70%
    05:00 +7°C° 0.2 mm 2 mps 672 mmHg 73%
    06:00 +7°C° 0 mm 2 mps 672 mmHg 76%
    07:00 +7°C° 0.3 mm 2 mps 672 mmHg 75%
    08:00 +8°C° 0.3 mm 2 mps 673 mmHg 74%
    09:00 +8°C° 0.3 mm 2 mps 673 mmHg 73%
    10:00 +9°C° 0.2 mm 2 mps 672 mmHg 71%
    11:00 +9°C° 0.2 mm 2 mps 672 mmHg 69%
    12:00 +10°C° 0 mm 2 mps 672 mmHg 66%
    13:00 +10°C° 0.2 mm 2 mps 672 mmHg 67%
    14:00 +10°C° 0.2 mm 2 mps 671 mmHg 68%
    15:00 +10°C° 0.2 mm 2 mps 671 mmHg 69%
    16:00 +9°C° 0.4 mm 2 mps 671 mmHg 73%
    17:00 +10°C° 0.4 mm 1 mps 671 mmHg 76%
    18:00 +9°C° 0.4 mm 1 mps 671 mmHg 80%
    19:00 +9°C° 0.3 mm 1 mps 671 mmHg 82%
    20:00 +9°C° 0.3 mm 1 mps 671 mmHg 84%
    21:00 +9°C° 0.3 mm 1 mps 671 mmHg 86%
    22:00 +8°C° 0.2 mm 1 mps 671 mmHg 87%
    23:00 +8°C° 0.2 mm 1 mps 671 mmHg 88%

    Tomorrow, 18 February, Sunday

    Time Temperature Precipitation Wind Pressure Humidity
    00:00 +8°C° 0.2 mm 1 mps 670 mmHg 89%
    01:00 +8°C° 0.2 mm 1 mps 670 mmHg 90%
    02:00 +8°C° 0.2 mm 1 mps 670 mmHg 90%
    03:00 +8°C° 0.2 mm 1 mps 670 mmHg 90%
    04:00 +8°C° 0.1 mm 1 mps 670 mmHg 90%
    05:00 +7°C° 0.1 mm 1 mps 669 mmHg 90%
    06:00 +6°C° 0.1 mm 2 mps 669 mmHg 90%
    07:00 +7°C° 0 mm 2 mps 670 mmHg 86%
    08:00 +8°C° 0 mm 2 mps 670 mmHg 81%
    09:00 +8°C° 0 mm 2 mps 670 mmHg 77%
    10:00 +9°C° 0 mm 2 mps 670 mmHg 71%
    11:00 +10°C° 0 mm 2 mps 670 mmHg 66%
    12:00 +12°C° 0 mm 2 mps 670 mmHg 60%
    13:00 +11°C° 0.2 mm 3 mps 670 mmHg 61%
    14:00 +11°C° 0.2 mm 3 mps 670 mmHg 61%
    15:00 +11°C° 0.2 mm 4 mps 670 mmHg 62%
    16:00 +10°C° 0.2 mm 4 mps 670 mmHg 67%
    17:00 +8°C° 0.2 mm 4 mps 670 mmHg 72%
    18:00 +9°C° 0.2 mm 3 mps 670 mmHg 77%
    19:00 +8°C° 0.1 mm 3 mps 670 mmHg 78%
    20:00 +8°C° 0.1 mm 3 mps 670 mmHg 79%
    21:00 +7°C° 0.1 mm 3 mps 670 mmHg 80%
    22:00 +7°C° 0 mm 2 mps 670 mmHg 80%
    23:00 +7°C° 0 mm 2 mps 670 mmHg 81%

    Day after tomorrow, 19 February, Monday

    Time Temperature Precipitation Wind Pressure Humidity
    00:00 +6°C° 0 mm 2 mps 670 mmHg 82%
    01:00 +6°C° 0 mm 2 mps 669 mmHg 83%
    02:00 +7°C° 0 mm 1 mps 669 mmHg 85%
    03:00 +6°C° 0 mm 1 mps 668 mmHg 87%
    04:00 +6°C° 0 mm 1 mps 668 mmHg 88%
    05:00 +6°C° 0 mm 1 mps 668 mmHg 88%
    06:00 +6°C° 0 mm 1 mps 668 mmHg 89%
    07:00 +6°C° 0.1 mm 1 mps 668 mmHg 86%
    08:00 +7°C° 0.1 mm 1 mps 669 mmHg 82%
    09:00 +7°C° 0.1 mm 1 mps 669 mmHg 78%
    10:00 +8°C° 0.1 mm 1 mps 669 mmHg 75%
    11:00 +9°C° 0.1 mm 1 mps 669 mmHg 71%
    12:00 +8°C° 0.1 mm 2 mps 669 mmHg 67%
    13:00 +9°C° 0.3 mm 2 mps 668 mmHg 66%
    14:00 +9°C° 0.3 mm 2 mps 668 mmHg 65%
    15:00 +9°C° 0.3 mm 2 mps 667 mmHg 64%
    16:00 +8°C° 0.3 mm 2 mps 667 mmHg 67%
    17:00 +8°C° 0.3 mm 2 mps 667 mmHg 71%
    18:00 +7°C° 0.3 mm 2 mps 667 mmHg 74%
    19:00 +7°C° 0.2 mm 2 mps 667 mmHg 76%
    20:00 +7°C° 0.2 mm 2 mps 668 mmHg 78%
    21:00 +6°C° 0.2 mm 2 mps 668 mmHg 80%
    22:00 +6°C° 0.2 mm 2 mps 667 mmHg 81%
    23:00 +7°C° 0.2 mm 1 mps 667 mmHg 82%

    20 February, Tuesday

    Time Temperature Precipitation Wind Pressure Humidity
    00:00 +6°C° 0.2 mm 1 mps 667 mmHg 84%
    01:00 +6°C° 0.4 mm 1 mps 666 mmHg 84%
    02:00 +6°C° 0.4 mm 1 mps 666 mmHg 85%
    03:00 +6°C° 0.4 mm 1 mps 666 mmHg 86%
    04:00 +5°C° 0.4 mm 1 mps 666 mmHg 86%
    05:00 +5°C° 0.4 mm 1 mps 666 mmHg 87%
    06:00 +5°C° 0.4 mm 1 mps 665 mmHg 87%
    07:00 +5°C° 0.1 mm 1 mps 666 mmHg 82%
    08:00 +5°C° 0.1 mm 2 mps 666 mmHg 76%
    09:00 +5°C° 0.1 mm 2 mps 666 mmHg 71%
    10:00 +6°C° 0.1 mm 2 mps 666 mmHg 66%
    11:00 +7°C° 0.1 mm 2 mps 666 mmHg 62%
    12:00 +7°C° 0.1 mm 2 mps 666 mmHg 57%
    13:00 +7°C° 0.4 mm 3 mps 666 mmHg 60%
    14:00 +6°C° 0.4 mm 4 mps 665 mmHg 62%
    15:00 +6°C° 0.4 mm 5 mps 665 mmHg 64%
    16:00 +5°C° 0.5 mm 4 mps 665 mmHg 67%
    17:00 +4°C° 0.5 mm 4 mps 665 mmHg 69%
    18:00 +3°C° 0.5 mm 4 mps 665 mmHg 72%
    19:00 +3°C° 0.1 mm 4 mps 665 mmHg 73%
    20:00 +2°C° 0.1 mm 3 mps 665 mmHg 74%
    21:00 +3°C° 0.1 mm 2 mps 665 mmHg 75%
    22:00 +2°C° 0 mm 2 mps 665 mmHg 76%
    23:00 +2°C° 0 mm 2 mps 665 mmHg 77%

    21 February, Wednesday

    Time Temperature Precipitation Wind Pressure Humidity
    00:00 +2°C° 0 mm 2 mps 664 mmHg 78%
    01:00 +1°C° 0 mm 2 mps 664 mmHg 79%
    02:00 +1°C° 0 mm 2 mps 663 mmHg 80%
    03:00 +1°C° 0 mm 2 mps 663 mmHg 81%
    04:00 +1°C° 0 mm 2 mps 663 mmHg 80%
    05:00 +1°C° 0 mm 2 mps 663 mmHg 79%
    06:00 +1°C° 0 mm 2 mps 662 mmHg 78%
    07:00 +2°C° 0 mm 2 mps 663 mmHg 71%
    08:00 +4°C° 0 mm 2 mps 663 mmHg 64%
    09:00 +5°C° 0 mm 2 mps 663 mmHg 57%
    10:00 +5°C° 0 mm 3 mps 663 mmHg 54%
    11:00 +7°C° 0 mm 3 mps 663 mmHg 52%
    12:00 +8°C° 0 mm 4 mps 663 mmHg 49%
    13:00 +8°C° 0 mm 4 mps 663 mmHg 49%
    14:00 +8°C° 0 mm 5 mps 662 mmHg 49%
    15:00 +8°C° 0 mm 5 mps 662 mmHg 48%
    16:00 +7°C° 0 mm 4 mps 661 mmHg 52%
    17:00 +7°C° 0 mm 3 mps 661 mmHg 55%
    18:00 +5°C° 0 mm 3 mps 661 mmHg 58%
    19:00 +5°C° 0.1 mm 3 mps 661 mmHg 59%
    20:00 +5°C° 0.1 mm 3 mps 661 mmHg 61%
    21:00 +4°C° 0.1 mm 3 mps 661 mmHg 63%
    22:00 +4°C° 0.2 mm 3 mps 660 mmHg 65%
    23:00 +4°C° 0.2 mm 4 mps 660 mmHg 67%

    22 February, Thursday

    Time Temperature Precipitation Wind Pressure Humidity
    00:00 +4°C° 0.2 mm 4 mps 660 mmHg 69%
    01:00 +3°C° 0 mm 3 mps 659 mmHg 71%
    02:00 +3°C° 0 mm 3 mps 659 mmHg 74%
    03:00 +3°C° 0 mm 2 mps 658 mmHg 76%
    04:00 +3°C° 0.1 mm 2 mps 658 mmHg 78%
    05:00 +3°C° 0.1 mm 2 mps 658 mmHg 80%
    06:00 +3°C° 0.1 mm 2 mps 658 mmHg 82%
    07:00 +3°C° 0.1 mm 2 mps 658 mmHg 78%
    08:00 +3°C° 0.1 mm 3 mps 659 mmHg 74%
    09:00 +4°C° 0.1 mm 3 mps 659 mmHg 70%
    10:00 +5°C° 0.1 mm 4 mps 659 mmHg 65%
    11:00 +6°C° 0.1 mm 5 mps 659 mmHg 60%
    12:00 +7°C° 0.1 mm 6 mps 659 mmHg 55%
    13:00 +6°C° 0.2 mm 7 mps 659 mmHg 52%
    14:00 +6°C° 0.2 mm 8 mps 659 mmHg 49%
    15:00 +7°C° 0.2 mm 9 mps 659 mmHg 46%
    16:00 +6°C° 0.1 mm 8 mps 659 mmHg 50%
    17:00 +5°C° 0.1 mm 7 mps 659 mmHg 53%
    18:00 +4°C° 0.1 mm 6 mps 659 mmHg 56%
    19:00 +3°C° 0 mm 5 mps 659 mmHg 58%
    20:00 +3°C° 0 mm 5 mps 660 mmHg 60%
    21:00 +3°C° 0 mm 4 mps 660 mmHg 62%
    22:00 +3°C° 0 mm 4 mps 660 mmHg 63%
    23:00 +2°C° 0 mm 3 mps 660 mmHg 64%
    Show more